Regional Weather Roundup
Issued by NWS

Home | Current Version | Previous Version | Text Only | Print | Product List | Glossary Off
Versions: 1 2 3 4 5 6 7 8 9 10 11 12 13 14 15 16 17 18 19 20 21 22 23 24 25 26 27 28 29 30 31 32 33 34 35 36 37 38 39 40 41 42 43 44 45 46 47 48 49 50

000
ASUS45 KABQ 140210
RWRNM
NEW MEXICO REGIONAL WEATHER ROUNDUP
NATIONAL WEATHER SERVICE ALBUQUERQUE NM
700 PM MST WED DEC 13 2017

NOTE: "FAIR" MEANS FEW OR NO CLOUDS BELOW 12,000 FEET AGL WITH NO
       SIGNIFICANT WEATHER OR OBSTRUCTIONS TO VISION.

      THIS PRODUCT IS RELEASED AS TWO VERSIONS.  ONE VERSION NEAR
      THE TOP OF THE HOUR CONTAINING PRELIMINARY DATA FROM ALBUQUERQUE
      AND OTHER STATIONS.  A FINAL VERSION WITH ADDITIONAL DATA IS
      ISSUED ABOUT 10 MINUTES AFTER THE HOUR.

NMZ501-503-504-510>518-140300-
NORTHWEST PLATEAU/NORTHCENTRAL MOUNTAINS

CITY           SKY/WX    TMP DP  RH WIND       PRES   REMARKS
FARMINGTON     FAIR      35   5  28 CALM      30.02F
LOS ALAMOS     FAIR      42   6  22 S12       30.05F
SANTA FE       FAIR      36   6  28 E6        30.04S WCI  31
TAOS           FAIR      33   5  30 CALM      30.06F
ANGEL FIRE     FAIR      33   7  34 S10       30.08S WCI  24

$$
NMZ402-403-502-505>509-140300-
WESTCENTRAL MOUNTAINS/SOUTHWEST MOUNTAINS

CITY           SKY/WX    TMP DP  RH WIND       PRES   REMARKS
GALLUP         FAIR      38   3  23 SW6       30.06F WCI  33
GRANTS         FAIR      32   3  29 W3        30.07S
SILVER CITY    FAIR      37  14  39 NW9       30.05S WCI  30

$$
NMZ407-409-411-412-140300-
SOUTHERN DESERTS

CITY           SKY/WX    TMP DP  RH WIND       PRES   REMARKS
DEMING         FAIR      49  18  29 W8        30.02S
LAS CRUCES     FAIR      45  16  30 W6        30.03S
HOLLOMAN AFB   FAIR      40   7  25 E5        30.03S
ALAMOGORDO     FAIR      37   1  22 E3        30.03R
T OR C         FAIR      46   6  19 CALM      30.02S

$$
NMZ519>523-140300-
CENTRAL VALLEYS/CENTRAL HIGHLANDS

CITY           SKY/WX    TMP DP  RH WIND       PRES   REMARKS
ALBUQUERQUE    FAIR      42   4  20 E5        30.02F
DOUBLE EAGLE   CLEAR     30   1  29 S6        30.04F WCI  24
MORIARTY ARPT  FAIR      35   7  31 SE6       30.05F WCI  30
CLINES CORNERS FAIR      35   6  29 S8        30.07S WCI  29
BELEN          FAIR      38   4  24 SW5       30.03S WCI  34
SOCORRO        FAIR      38   1  21 SE3       30.01F

$$
NMZ524>526-539-540-140300-
SOUTHCENTRAL MOUNTAINS

CITY           SKY/WX    TMP DP  RH WIND       PRES   REMARKS
RUIDOSO        FAIR      39   5  24 SW8       30.09S WCI  34

$$
NMZ527>531-140300-
NORTHEAST HIGHLANDS/NORTHEAST PLAINS

CITY           SKY/WX    TMP DP  RH WIND       PRES   REMARKS
LAS VEGAS      FAIR      31   6  35 S10       30.06S WCI  22
RATON          MOCLDY    35   5  28 W7        30.04R WCI  29
CLAYTON        MOCLDY    40  11  30 NE6       30.04R

$$
NMZ532>537-140300-
EASTCENTRAL PLAINS

CITY           SKY/WX    TMP DP  RH WIND       PRES   REMARKS
SANTA ROSA     FAIR      43  10  25 E10       30.01S
TUCUMCARI      FAIR      40  12  32 NE8       29.99S WCI  34
CANNON AFB     CLEAR     40  13  33 NE12      30.01R WCI  32
CLOVIS AIRPORT FAIR      35  13  40 N13       30.01R WCI  26

$$
NMZ028-029-538-140300-
SOUTHEAST PLAINS

CITY           SKY/WX    TMP DP  RH WIND       PRES   REMARKS
ROSWELL        FAIR      44  12  27 NW3       29.98R
ARTESIA        FAIR      45  10  24 W13       29.97S
CARLSBAD       FAIR      45  18  34 W9        29.95S
HOBBS          FAIR      41  10  28 N10       29.95S


$$




USA.gov is the U.S. government's official web portal to all federal, state and local government web resources and services.